FW8733 Weather Reports


time (UTC)temp
F
wind
direction
speed
knots
gust
knots
rain 1hr
in
rain 24hr
in
rain mn
in
humidity
%
barometer
mb
20260505051707 72 197 0.9 0.9 0.00 0.00 0.00 88 1012.3
20260505051206 72 195 2.6 2.6 0.00 0.00 0.00 88 1012.4
20260505050703 72 222 0.0 0.0 0.00 0.00 0.00 88 1012.7
20260505050201 72 215 1.7 1.7 0.00 0.00 0.00 88 1012.4
20260505041631 73 210 0.9 1.7 0.00 0.00 0.00 87 1012.4
20260505041128 73 190 4.3 7.0 0.00 0.00 0.00 86 1012.4
20260505040625 73 175 4.3 6.1 0.00 0.00 0.00 86 1012.2
20260505040122 73 180 5.2 7.8 0.00 0.00 0.00 86 1012.6
20260505035618 73 208 4.3 7.0 0.00 0.00 0.00 86 1012.2
20260505035115 73 215 1.7 1.7 0.00 0.00 0.00 86 1012.3
20260505034612 73 178 2.6 2.6 0.00 0.00 0.00 85 1012.3
20260505034108 73 133 2.6 4.3 0.00 0.00 0.00 84 1012.4
20260505033605 74 201 1.7 1.7 0.00 0.00 0.00 83 1012.2
20260505033104 74 210 2.6 2.6 0.00 0.00 0.00 83 1012.3
20260505032601 74 219 0.9 0.9 0.00 0.00 0.00 82 1012.4
20260505032057 74 204 0.0 0.9 0.00 0.00 0.00 82 1012.4
20260505031555 74 215 0.9 0.9 0.00 0.00 0.00 82 1012.3
20260505031051 74 197 1.7 1.7 0.00 0.00 0.00 82 1012.3
20260505030548 74 206 0.9 0.9 0.00 0.00 0.00 82 1012.2
20260505030044 74 215 0.9 1.7 0.00 0.00 0.00 81 1012.3
20260505025540 74 216 2.6 4.3 0.00 0.00 0.00 81 1012.0
20260505025039 74 222 2.6 5.2 0.00 0.00 0.00 81 1012.2
20260505024536 75 218 0.9 0.9 0.00 0.00 0.00 80 1012.2
20260505024032 75 159 3.5 5.2 0.00 0.00 0.00 80 1012.1
20260505023529 75 134 0.0 0.9 0.00 0.00 0.00 80 1012.2
20260505023027 75 174 1.7 1.7 0.00 0.00 0.00 79 1012.2
20260505022525 75 196 0.9 1.7 0.00 0.00 0.00 79 1012.2
20260505022022 75 206 1.7 1.7 0.00 0.00 0.00 78 1012.1
20260505021518 75 203 1.7 1.7 0.00 0.00 0.00 78 1012.1
20260505021014 75 216 0.9 0.9 0.00 0.00 0.00 78 1012.3
20260505020509 75 205 0.9 1.7 0.00 0.00 0.00 77 1012.0
20260505020006 75 181 0.0 0.0 0.00 0.00 0.00 77 1011.9
20260505015503 75 209 1.7 1.7 0.00 0.00 0.00 77 1012.1
20260505015000 76 209 0.0 0.0 0.00 0.00 0.00 76 1012.0
20260505014457 76 209 1.7 1.7 0.00 0.00 0.00 75 1012.1
20260505013954 76 209 0.9 0.9 0.00 0.00 0.00 74 1012.1
20260505013451 77 206 0.9 1.7 0.00 0.00 0.00 74 1011.8
20260505012949 77 214 0.0 0.0 0.00 0.00 0.00 74 1012.0
20260505012447 77 181 1.7 2.6 0.00 0.00 0.00 73 1011.8
20260505011943 77 192 2.6 2.6 0.00 0.00 0.00 72 1011.8
20260505011439 77 187 0.0 0.9 0.00 0.00 0.00 71 1011.8
20260505010936 77 199 0.9 0.9 0.00 0.00 0.00 71 1011.9
20260505010432 78 137 2.6 4.3 0.00 0.00 0.00 70 1011.7
20260505005928 78 168 1.7 1.7 0.00 0.00 0.00 70 1011.8
20260505005425 78 214 0.9 0.9 0.00 0.00 0.00 69 1011.7
20260505004923 78 196 2.6 4.3 0.00 0.00 0.00 68 1011.8
20260505004419 78 178 4.3 7.0 0.00 0.00 0.00 67 1011.9
20260505003916 79 216 1.7 1.7 0.00 0.00 0.00 67 1011.8
20260505003413 79 191 2.6 2.6 0.00 0.00 0.00 67 1011.8
20260505002909 79 205 1.7 2.6 0.00 0.00 0.00 66 1011.6
20260505002406 79 140 2.6 2.6 0.00 0.00 0.00 66 1011.7
20260505001904 79 204 0.0 0.9 0.00 0.00 0.00 66 1011.7
20260505001401 80 277 2.6 4.3 0.00 0.00 0.00 66 1011.5
20260505000858 79 199 0.9 1.7 0.00 0.00 0.00 66 1011.6
20260505000358 79 212 2.6 2.6 0.00 0.00 0.00 66 1011.7
20260504235852 79 205 1.7 2.6 0.00 0.00 0.00 66 1011.6
20260504235349 80 179 4.3 8.7 0.00 0.00 0.00 65 1011.8
20260504234846 80 143 4.3 5.2 0.00 0.00 0.00 65 1011.8
20260504234344 80 217 1.7 2.6 0.00 0.00 0.00 65 1012.0
20260504233840 81 186 4.3 7.8 0.00 0.00 0.00 65 1012.0
20260504233336 81 266 3.5 6.1 0.00 0.00 0.00 64 1012.0
20260504232833 81 196 0.9 1.7 0.00 0.00 0.00 64 1012.2
20260504232330 81 179 2.6 4.3 0.00 0.00 0.00 63 1012.1
20260504231826 82 189 0.9 0.9 0.00 0.00 0.00 64 1012.1
20260504231323 81 251 5.2 7.8 0.00 0.00 0.00 63 1012.2
20260504230819 82 105 4.3 6.1 0.00 0.00 0.00 63 1011.9
20260504230318 81 219 3.5 4.3 0.00 0.00 0.00 63 1012.3
20260504225816 82 220 1.7 2.6 0.00 0.00 0.00 62 1012.3
20260504225312 82 186 2.6 5.2 0.00 0.00 0.00 63 1012.4
20260504224809 83 170 5.2 7.0 0.00 0.00 0.00 62 1012.4
20260504224306 82 219 4.3 6.1 0.00 0.00 0.00 62 1012.4
20260504223803 82 284 4.3 7.0 0.00 0.00 0.00 62 1012.4
20260504223258 82 210 1.7 1.7 0.00 0.00 0.00 63 1013.0
20260504222755 82 186 7.8 12.2 0.00 0.00 0.00 62 1012.6
20260504222252 81 215 7.0 7.8 0.00 0.00 0.00 62 1012.9
20260504221750 82 172 6.1 7.0 0.00 0.00 0.00 62 1012.7
20260504221247 82 210 5.2 7.0 0.00 0.00 0.00 62 1012.8
20260504220743 82 199 4.3 7.8 0.00 0.00 0.00 61 1013.0
20260504220241 83 199 3.5 5.2 0.00 0.00 0.00 61 1012.8
20260504215738 84 180 3.5 7.8 0.00 0.00 0.00 60 1012.9
20260504215234 83 186 2.6 4.3 0.00 0.00 0.00 60 1013.0
20260504214730 84 193 0.9 1.7 0.00 0.00 0.00 61 1012.8
20260504214227 83 129 4.3 6.1 0.00 0.00 0.00 60 1013.0
20260504213724 84 214 0.9 0.9 0.00 0.00 0.00 62 1013.0
20260504213220 84 153 3.5 7.0 0.00 0.00 0.00 61 1012.9
20260504212717 83 181 5.2 9.6 0.00 0.00 0.00 61 1012.9
20260504212214 83 133 3.5 5.2 0.00 0.00 0.00 61 1013.0
20260504211711 82 121 6.1 7.8 0.00 0.00 0.00 62 1013.3
20260504211207 82 197 4.3 7.0 0.00 0.00 0.00 62 1013.3
20260504210705 83 152 7.0 8.7 0.00 0.00 0.00 62 1013.2
20260504210201 83 179 8.7 9.6 0.00 0.00 0.00 60 1013.4
20260504205659 83 184 1.7 1.7 0.00 0.00 0.00 62 1013.5
20260504205155 83 185 0.9 1.7 0.00 0.00 0.00 63 1013.9
20260504204654 83 214 4.3 6.1 0.00 0.00 0.00 60 1013.8
20260504204153 83 229 1.7 2.6 0.00 0.00 0.00 61 1013.8
20260504203651 83 210 1.7 1.7 0.00 0.00 0.00 61 1013.8
20260504203148 83 206 0.9 1.7 0.00 0.00 0.00 61 1013.9
20260504202643 83 165 6.1 8.7 0.00 0.00 0.00 61 1014.4
20260504202140 83 144 4.3 5.2 0.00 0.00 0.00 62 1014.3
20260504201637 83 224 1.7 2.6 0.00 0.00 0.00 61 1014.2
20260504201135 83 164 4.3 5.2 0.00 0.00 0.00 61 1014.5
20260504200632 82 165 7.0 7.8 0.00 0.00 0.00 61 1014.7
20260504200128 82 147 6.1 7.0 0.00 0.00 0.00 60 1014.5
20260504195624 83 192 2.6 4.3 0.00 0.00 0.00 60 1014.7
20260504195120 83 214 3.5 5.2 0.00 0.00 0.00 61 1014.8
20260504194617 83 227 3.5 6.1 0.00 0.00 0.00 61 1014.7
20260504194113 81 161 3.5 4.3 0.00 0.00 0.00 63 1014.9
20260504193609 81 234 4.3 6.1 0.00 0.00 0.00 63 1015.1
20260504193108 82 223 5.2 6.1 0.00 0.00 0.00 62 1015.1
20260504192606 82 267 0.0 0.9 0.00 0.00 0.00 62 1015.2
20260504192104 80 214 1.7 2.6 0.00 0.00 0.00 64 1015.0
20260504191602 80 162 4.3 6.1 0.00 0.00 0.00 64 1015.1
20260504191058 81 136 7.0 8.7 0.00 0.00 0.00 63 1015.5
20260504190554 81 206 0.9 0.9 0.00 0.00 0.00 65 1015.4
20260504190050 80 227 4.3 5.2 0.00 0.00 0.00 63 1015.6
20260504185547 82 220 3.5 6.1 0.00 0.00 0.00 64 1015.8
20260504185044 81 211 2.6 5.2 0.00 0.00 0.00 63 1015.8
20260504184539 82 206 1.7 2.6 0.00 0.00 0.00 63 1015.8
20260504184035 80 143 4.3 6.1 0.00 0.00 0.00 63 1015.5
20260504183532 81 277 1.7 1.7 0.00 0.00 0.00 64 1015.9
20260504183030 80 261 1.7 1.7 0.00 0.00 0.00 64 1015.8
20260504182527 81 203 2.6 2.6 0.00 0.00 0.00 63 1016.0
20260504182024 81 178 1.7 2.6 0.00 0.00 0.00 62 1016.2
20260504181521 80 203 3.5 5.2 0.00 0.00 0.00 63 1016.2
20260504181020 80 201 2.6 4.3 0.00 0.00 0.00 64 1016.4
20260504180518 81 207 3.5 5.2 0.00 0.00 0.00 64 1016.2
20260504180017 80 213 1.7 2.6 0.00 0.00 0.00 66 1016.3
20260504175513 80 139 5.2 7.0 0.00 0.00 0.00 64 1016.3
20260504175010 79 239 0.0 0.0 0.00 0.00 0.00 69 1016.3
20260504174508 79 190 4.3 5.2 0.00 0.00 0.00 66 1016.5
20260504174005 78 199 6.1 8.7 0.00 0.00 0.00 66 1016.5
20260504173501 77 211 0.9 2.6 0.00 0.00 0.00 70 1016.7
20260504172959 77 210 5.2 7.0 0.00 0.00 0.00 68 1017.4
20260504172455 76 215 0.9 0.9 0.00 0.00 0.00 71 1017.1
20260504171951 77 205 4.3 6.1 0.00 0.00 0.00 69 1017.3
20260504171449 76 196 1.7 2.6 0.00 0.00 0.00 70 1017.5
20260504170945 76 206 4.3 6.1 0.00 0.00 0.00 71 1017.5
20260504170442 76 207 4.3 6.1 0.00 0.00 0.00 71 1017.6
20260504160401 75 216 2.6 2.6 0.00 0.00 0.00 72 1018.0
20260504150825 73 204 1.7 1.7 0.00 0.00 0.00 75 1018.5
20260504150322 73 157 3.5 4.3 0.00 0.00 0.00 74 1018.4
20260504141252 70 335 1.7 2.6 0.00 0.00 0.00 77 1018.2
20260504140749 69 268 1.7 2.6 0.00 0.00 0.00 78 1018.1
20260504140244 70 159 2.6 4.3 0.00 0.00 0.00 76 1018.4
20260504130713 66 184 1.7 2.6 0.00 0.00 0.00 83 1018.3
20260504130209 65 190 2.6 2.6 0.00 0.00 0.00 82 1018.3
20260504120133 58 223 0.0 0.0 0.00 0.00 0.00 93 1017.6
20260504110600 59 223 0.0 0.0 0.00 0.00 0.00 91 1017.8
20260504100522 60 210 0.0 0.0 0.00 0.00 0.00 88 1018.1
20260504081915 63 198 1.7 1.7 0.00 0.00 0.00 81 1018.4
20260504081412 62 167 3.5 5.2 0.00 0.00 0.00 81 1018.5
20260504080908 63 169 0.0 0.9 0.00 0.00 0.00 81 1018.6
20260504080405 63 216 1.7 1.7 0.00 0.00 0.00 80 1018.7
20260504070333 64 210 0.9 1.7 0.00 0.00 0.00 77 1019.3